This is the latest recevied weather packets stored in our database for station/object K2BIG. If no packets are shown the sender has not sent any weather packets the latest 1 day(s).
| Time | Temp. | Humidity | Pressure | Rain* | Wind** | Luminosity | Snow |
|---|---|---|---|---|---|---|---|
| 1778042117 | 21.67° C | 59% | 1009.1 hPa | 0 mm | 1.79 m/s, 158° | - | - |
| 1778041816 | 21.67° C | 58% | 1009.2 hPa | 0 mm | 1.79 m/s, 203° | - | - |
| 1778041517 | 21.67° C | 57% | 1009.1 hPa | 0 mm | 1.79 m/s, 180° | - | - |
| 1778041218 | 21.67° C | 57% | 1009.1 hPa | 0 mm | 1.79 m/s, 180° | - | - |
| 1778040916 | 21.67° C | 56% | 1009 hPa | 0 mm | 1.34 m/s, 180° | - | - |
| 1778040616 | 21.67° C | 55% | 1009 hPa | 0 mm | 2.24 m/s, 203° | - | - |
| 1778040316 | 21.67° C | 55% | 1008.9 hPa | 0 mm | 1.34 m/s, 180° | - | - |
| 1778040016 | 21.67° C | 55% | 1008.8 hPa | 0 mm | 1.34 m/s, 180° | - | - |
| 1778039716 | 21.67° C | 54% | 1008.8 hPa | 0 mm | 0.45 m/s, 180° | - | - |
| 1778039415 | 21.67° C | 54% | 1008.8 hPa | 0 mm | 0.89 m/s, 180° | - | - |
| 1778039116 | 22.22° C | 54% | 1008.8 hPa | 0 mm | 0.45 m/s, 180° | - | - |
| 1778038815 | 22.22° C | 53% | 1008.8 hPa | 0 mm | 0.89 m/s, 158° | - | - |
| 1778038515 | 22.22° C | 53% | 1008.8 hPa | 0 mm | 1.34 m/s, 203° | - | - |
| 1778038215 | 22.22° C | 53% | 1008.7 hPa | 0 mm | 1.79 m/s, 180° | - | - |
| 1778037915 | 22.22° C | 53% | 1008.7 hPa | 0 mm | 0.89 m/s, 180° | - | - |
| 1778037615 | 22.22° C | 53% | 1008.7 hPa | 0 mm | 0.45 m/s, 135° | - | - |
| 1778037315 | 22.22° C | 52% | 1008.7 hPa | 0 mm | 0.89 m/s, 158° | - | - |
| 1778037015 | 22.22° C | 52% | 1008.8 hPa | 0 mm | 0.89 m/s, 180° | - | - |
| 1778036715 | 22.78° C | 52% | 1008.8 hPa | 0 mm | 0.89 m/s, 203° | - | - |
| 1778036415 | 22.78° C | 51% | 1008.8 hPa | 0 mm | 1.34 m/s, 203° | - | - |
| 1778036115 | 22.78° C | 51% | 1008.8 hPa | 0 mm | 1.34 m/s, 203° | - | - |
| 1778035816 | 22.78° C | 51% | 1008.7 hPa | 0 mm | 1.34 m/s, 180° | - | - |
| 1778035515 | 22.78° C | 51% | 1008.7 hPa | 0 mm | 1.79 m/s, 180° | - | - |
| 1778035215 | 22.78° C | 51% | 1008.7 hPa | 0 mm | 0.89 m/s, 180° | - | - |
| 1778034915 | 22.78° C | 50% | 1008.7 hPa | 0 mm | 1.79 m/s, 203° | - | - |
* Rain latest hour (hover to see other rain measurements)
** Current wind speed in m/s (hover to see current wind gust speed)